Location: Karlsruhe
(49.0131°N, 8.3874°E)
Time: 22:25:50
(UTC+02:00)

ISS - Visible Passes

Search period start: 25 September 2020 00:00
Search period end: 05 October 2020 00:00
Orbit: 419 x 420 km, 51.6° (Epoch: 26 September)

Date Brightness Start Highest point End Pass type
(mag) Time Alt. Az. Time Alt. Az. Time Alt. Az.
25 Sep -3.2 20:57:52 10° W 21:01:12 52° N 21:02:08 37° NE visible
25 Sep -0.4 22:34:50 10° WNW 22:35:06 12° WNW 22:35:06 12° WNW visible
26 Sep -3.2 20:10:25 10° W 20:13:44 55° N 20:16:31 14° ENE visible
26 Sep -2.0 21:47:26 10° WNW 21:49:28 33° WNW 21:49:28 33° WNW visible
27 Sep -3.5 21:00:01 10° WNW 21:03:21 57° N 21:03:50 51° NE visible
28 Sep -3.3 20:12:34 10° WNW 20:15:53 53° N 20:18:11 18° ENE visible
28 Sep -1.6 21:49:27 10° WNW 21:51:09 27° WNW 21:51:09 27° WNW visible
29 Sep -3.9 21:02:02 10° WNW 21:05:25 83° NNE 21:05:30 81° NE visible
30 Sep -3.6 20:14:36 10° WNW 20:17:58 67° NNE 20:19:53 23° E visible
30 Sep -1.2 21:51:32 10° W 21:52:51 20° W 21:52:51 20° W visible
01 Oct -3.3 21:04:00 10° WNW 21:07:15 53° SSW 21:07:15 53° SSW visible
02 Oct -3.7 20:16:31 10° WNW 20:19:54 75° SSW 20:21:42 25° ESE visible
02 Oct -0.7 21:54:01 10° W 21:54:40 13° WSW 21:54:40 13° WSW visible
03 Oct -3.7 19:29:03 10° WNW 19:32:27 83° NNE 19:35:49 10° ESE visible
03 Oct -2.0 21:06:10 10° W 21:08:59 25° SW 21:09:10 25° SSW visible
04 Oct -2.5 20:18:30 10° W 20:21:39 36° SSW 20:23:45 17° SSE visible
